Hourly Data Report for April 10, 2004

SHERBROOKE A
QUEBEC

45°26'00.000" N
71°41'00.000" W
241.40 m
7028124
71610
YSC

Download Data

Hourly Data (April 2004)
Hourly Data Report for April 10, 2004
TIME
LST
Temp Definition
°C
Dew Point Definition
°C
Rel Hum Definition
%
Precip. Amount Definition
mm

Wind Dir Definition
10's deg

Wind Spd Definition
km/h
Visibility Definition
km
Stn Press Definition
kPa
Hmdx Definition


Wind Chill Definition


Weather Definition


00:00 -0.1 -3.4 78   33 13 11.3 97.97   -4 Snow
01:00 -0.8 -3.7 81   30 11 8.0 97.97   -5 Snow
02:00 -2.5 -6.4 75   33 17 12.9 98.00   -8 Snow
03:00 -3.1 -7.2 73   33 17 15.0 98.06   -9 Snow
04:00 -4.1 -8.5 71   32 11 15.0 98.10   -9 Snow
05:00 -4.6 -9.8 67   32 17 15.0 98.15   -10 Snow
06:00 -4.5 -8.2 75   28 13 15.0 98.20   -10 Snow
07:00 -4.2 -8.2 74   27 13 24.1 98.22   -9 Mostly Cloudy
08:00 -3.5 -8.2 70   27 20 24.1 98.25   -10 Snow Showers
09:00 -2.2 -8.9 60   28 20 24.1 98.28   -8 Snow Showers
10:00 -0.7 -9.0 53   28 26 24.1 98.30   -7 Mostly Cloudy
11:00 -0.9 -8.7 55   27 24 24.1 98.31   -7 Mostly Cloudy
12:00 -0.1 -7.9 56   27 28 24.1 98.31   -6 Mostly Cloudy
13:00 0.3 -7.6 55   27 26 24.1 98.33     Mostly Cloudy
14:00 -0.2 -7.8 56   28 22 24.1 98.37   -6 Cloudy
15:00 -0.4 -7.5 59   27 19 24.1 98.39   -6 Cloudy
16:00 -0.1 -7.1 59   28 19 24.1 98.40   -5 Mostly Cloudy
17:00 0.1 -7.2 58   28 11 15.0 98.45      
18:00 0.0 -7.2 58   26 7 15.0 98.48   -2 Snow
19:00 -0.8 -7.4 61   25 7 15.0 98.54   -3  
20:00 -1.0 -6.8 65   21 6 15.0 98.60   -3  
21:00 -1.2 -6.6 67   25 4 15.0 98.61   -3  
22:00 -1.7 -6.9 68   32 9 15.0 98.65   -5  
23:00 -2.0 -9.3 57   30 4 15.0 98.66   -3  

Notes on Data Quality.

Legend

  • E = Estimated
  • M = Missing
  • NA = Not Available*
  • [empty] = Indicates an unobserved value
Date modified: